This is the latest recevied weather packets stored in our database for station/object AC1IX. If no packets are shown the sender has not sent any weather packets the latest 10 day(s).
| Time | Temp. | Humidity | Pressure | Rain* | Wind** | Luminosity | Snow |
|---|---|---|---|---|---|---|---|
| 1777554159 | 8.33° C | 99% | 1007.5 hPa | 0 mm | - | 49 W/m² | - |
| 1777553856 | 8.33° C | 99% | 1007.4 hPa | 0 mm | - | 62 W/m² | - |
| 1777553553 | 8.33° C | 99% | 1007.3 hPa | 0 mm | - | 58 W/m² | - |
| 1777553248 | 8.33° C | 99% | 1007.4 hPa | 0 mm | - | 52 W/m² | - |
| 1777552945 | 8.33° C | 99% | 1007.5 hPa | 0 mm | - | 28 W/m² | - |
| 1777552645 | 8.33° C | 99% | 1007.7 hPa | 0 mm | - | 34 W/m² | - |
| 1777552342 | 8.33° C | 99% | 1007.5 hPa | 0 mm | - | 41 W/m² | - |
| 1777552038 | 8.33° C | 99% | 1007.8 hPa | 0 mm | - | 63 W/m² | - |
| 1777551735 | 8.33° C | 99% | 1007.7 hPa | 0 mm | - | 26 W/m² | - |
| 1777551433 | 8.33° C | 99% | 1007.5 hPa | 0 mm | - | 40 W/m² | - |
| 1777551130 | 8.33° C | 99% | 1007.7 hPa | 0 mm | - | 28 W/m² | - |
| 1777550827 | 8.33° C | 99% | 1007.8 hPa | 0 mm | - | 24 W/m² | - |
| 1777550523 | 8.33° C | 99% | 1007.8 hPa | 0 mm | - | 30 W/m² | - |
| 1777550219 | 8.33° C | 99% | 1007.9 hPa | 0 mm | - | 25 W/m² | - |
| 1777549916 | 8.33° C | 99% | 1007.9 hPa | 0 mm | - | 29 W/m² | - |
| 1777549612 | 8.33° C | 99% | 1008 hPa | 0 mm | - | 23 W/m² | - |
| 1777549307 | 8.33° C | 99% | 1008 hPa | 0 mm | - | 39 W/m² | - |
| 1777549005 | 7.78° C | 99% | 1008.2 hPa | 0 mm | - | 31 W/m² | - |
| 1777548701 | 7.78° C | 99% | 1007.7 hPa | 0 mm | - | 33 W/m² | - |
| 1777548399 | 7.78° C | 99% | 1007.7 hPa | 0 mm | - | 23 W/m² | - |
| 1777548096 | 7.78° C | 99% | 1007.9 hPa | 0 mm | - | 21 W/m² | - |
| 1777547791 | 7.78° C | 99% | 1007.9 hPa | 0 mm | - | 16 W/m² | - |
| 1777547487 | 7.78° C | 99% | 1007.8 hPa | 0 mm | - | 14 W/m² | - |
| 1777547185 | 7.78° C | 99% | 1007.9 hPa | 0 mm | - | 13 W/m² | - |
| 1777546882 | 7.78° C | 99% | 1007.4 hPa | 0 mm | - | 12 W/m² | - |
* Rain latest hour (hover to see other rain measurements)
** Current wind speed in m/s (hover to see current wind gust speed)